When you browse on this site, cookies collect data to enhance your experience and personalize the content and advertising you see.
Visit our Privacy Policy to learn more. By continuing to use the site, you agree to this use of cookies and data.
  • In United Kingdom
  • List of Countries
  • For 7 days
  • Water Temperature
  • Weather Map
  • Weather Widgets
  • user-avatar
    Login

    Hourly Weather Penza

    Today, 16 September, Monday

    Time Temperature Precipitation Wind Pressure Humidity
    00:00 +9°C° 0 mm 3 mps 743 mmHg 75%
    01:00 +8°C° 0 mm 4 mps 743 mmHg 72%
    02:00 +8°C° 0 mm 4 mps 743 mmHg 70%
    03:00 +8°C° 0 mm 5 mps 742 mmHg 68%
    04:00 +8°C° 0.2 mm 5 mps 742 mmHg 71%
    05:00 +8°C° 0.2 mm 5 mps 741 mmHg 73%
    06:00 +8°C° 0.2 mm 6 mps 741 mmHg 76%
    07:00 +8°C° 0.4 mm 6 mps 740 mmHg 77%
    08:00 +8°C° 0.4 mm 6 mps 739 mmHg 77%
    09:00 +9°C° 0.4 mm 6 mps 739 mmHg 78%
    10:00 +9°C° 0.2 mm 6 mps 738 mmHg 76%
    11:00 +10°C° 0.2 mm 7 mps 738 mmHg 74%
    12:00 +11°C° 0.2 mm 7 mps 737 mmHg 73%
    13:00 +11°C° 0 mm 6 mps 737 mmHg 71%
    14:00 +13°C° 0 mm 6 mps 736 mmHg 70%
    15:00 +13°C° 0 mm 5 mps 736 mmHg 69%
    16:00 +13°C° 0 mm 5 mps 736 mmHg 71%
    17:00 +12°C° 0 mm 5 mps 736 mmHg 73%
    18:00 +12°C° 0 mm 5 mps 735 mmHg 76%
    19:00 +12°C° 0 mm 5 mps 736 mmHg 77%
    20:00 +10°C° 0 mm 5 mps 736 mmHg 77%
    21:00 +10°C° 0 mm 5 mps 736 mmHg 78%
    22:00 +10°C° 0 mm 5 mps 736 mmHg 81%
    23:00 +10°C° 0 mm 4 mps 736 mmHg 84%

    Tomorrow, 17 September, Tuesday

    Time Temperature Precipitation Wind Pressure Humidity
    00:00 +10°C° 0 mm 4 mps 735 mmHg 87%
    01:00 +10°C° 0 mm 4 mps 735 mmHg 88%
    02:00 +8°C° 0 mm 4 mps 735 mmHg 89%
    03:00 +8°C° 0 mm 4 mps 735 mmHg 91%
    04:00 +8°C° 0 mm 4 mps 735 mmHg 90%
    05:00 +8°C° 0 mm 4 mps 735 mmHg 90%
    06:00 +7°C° 0 mm 4 mps 735 mmHg 89%
    07:00 +8°C° 0 mm 5 mps 735 mmHg 83%
    08:00 +10°C° 0 mm 6 mps 735 mmHg 77%
    09:00 +11°C° 0 mm 6 mps 735 mmHg 71%
    10:00 +13°C° 0 mm 6 mps 735 mmHg 65%
    11:00 +14°C° 0 mm 7 mps 735 mmHg 58%
    12:00 +15°C° 0 mm 7 mps 735 mmHg 52%
    13:00 +15°C° 0 mm 7 mps 735 mmHg 53%
    14:00 +14°C° 0 mm 7 mps 735 mmHg 53%
    15:00 +14°C° 0 mm 6 mps 735 mmHg 54%
    16:00 +13°C° 0 mm 5 mps 735 mmHg 56%
    17:00 +12°C° 0 mm 4 mps 735 mmHg 59%
    18:00 +11°C° 0 mm 3 mps 735 mmHg 62%
    19:00 +10°C° 0 mm 3 mps 735 mmHg 64%
    20:00 +10°C° 0 mm 3 mps 735 mmHg 67%
    21:00 +9°C° 0 mm 3 mps 736 mmHg 69%
    22:00 +9°C° 0 mm 3 mps 736 mmHg 71%
    23:00 +8°C° 0 mm 3 mps 735 mmHg 72%

    Day after tomorrow, 18 September, Wednesday

    Time Temperature Precipitation Wind Pressure Humidity
    00:00 +8°C° 0 mm 3 mps 735 mmHg 73%
    01:00 +8°C° 0 mm 3 mps 735 mmHg 74%
    02:00 +8°C° 0 mm 3 mps 735 mmHg 75%
    03:00 +7°C° 0 mm 3 mps 735 mmHg 75%
    04:00 +8°C° 0 mm 3 mps 735 mmHg 75%
    05:00 +7°C° 0 mm 4 mps 735 mmHg 74%
    06:00 +7°C° 0 mm 4 mps 735 mmHg 74%
    07:00 +8°C° 0.1 mm 5 mps 734 mmHg 71%
    08:00 +10°C° 0.1 mm 6 mps 734 mmHg 68%
    09:00 +11°C° 0.1 mm 7 mps 734 mmHg 65%
    10:00 +11°C° 0.4 mm 7 mps 734 mmHg 65%
    11:00 +12°C° 0.4 mm 7 mps 734 mmHg 65%
    12:00 +12°C° 0.4 mm 7 mps 733 mmHg 66%
    13:00 +12°C° 0.5 mm 7 mps 733 mmHg 63%
    14:00 +12°C° 0.5 mm 7 mps 733 mmHg 61%
    15:00 +12°C° 0.5 mm 7 mps 733 mmHg 59%
    16:00 +12°C° 0.3 mm 5 mps 732 mmHg 64%
    17:00 +11°C° 0.3 mm 4 mps 732 mmHg 70%
    18:00 +10°C° 0.3 mm 3 mps 732 mmHg 75%
    19:00 +10°C° 0.6 mm 4 mps 732 mmHg 77%
    20:00 +8°C° 0.6 mm 5 mps 732 mmHg 79%
    21:00 +7°C° 0.6 mm 5 mps 732 mmHg 81%
    22:00 +6°C° 0 mm 5 mps 732 mmHg 82%
    23:00 +5°C° 0 mm 6 mps 732 mmHg 83%

    19 September, Thursday

    Time Temperature Precipitation Wind Pressure Humidity
    00:00 +4°C° 0 mm 6 mps 732 mmHg 84%
    01:00 +4°C° 0.1 mm 6 mps 733 mmHg 84%
    02:00 +4°C° 0.1 mm 6 mps 733 mmHg 85%
    03:00 +4°C° 0.1 mm 7 mps 733 mmHg 86%
    04:00 +5°C° 0.1 mm 6 mps 734 mmHg 87%
    05:00 +5°C° 0.1 mm 6 mps 735 mmHg 87%
    06:00 +5°C° 0.1 mm 6 mps 735 mmHg 88%
    07:00 +7°C° 0 mm 6 mps 736 mmHg 85%
    08:00 +7°C° 0 mm 6 mps 737 mmHg 83%
    09:00 +6°C° 0 mm 7 mps 738 mmHg 81%
    10:00 +8°C° 0 mm 6 mps 739 mmHg 78%
    11:00 +8°C° 0 mm 6 mps 739 mmHg 75%
    12:00 +9°C° 0 mm 6 mps 740 mmHg 71%
    13:00 +9°C° 0.1 mm 6 mps 740 mmHg 71%
    14:00 +9°C° 0.1 mm 6 mps 741 mmHg 70%
    15:00 +9°C° 0.1 mm 6 mps 741 mmHg 70%
    16:00 +8°C° 0 mm 5 mps 741 mmHg 72%
    17:00 +8°C° 0 mm 4 mps 742 mmHg 75%
    18:00 +8°C° 0 mm 3 mps 742 mmHg 78%
    19:00 +7°C° 0 mm 3 mps 742 mmHg 80%
    20:00 +7°C° 0 mm 2 mps 743 mmHg 81%
    21:00 +6°C° 0 mm 2 mps 743 mmHg 83%
    22:00 +6°C° 0 mm 2 mps 743 mmHg 84%
    23:00 +6°C° 0 mm 2 mps 743 mmHg 86%

    20 September, Friday

    Time Temperature Precipitation Wind Pressure Humidity
    00:00 +5°C° 0 mm 2 mps 744 mmHg 87%
    01:00 +5°C° 0 mm 2 mps 744 mmHg 88%
    02:00 +5°C° 0 mm 1 mps 743 mmHg 89%
    03:00 +5°C° 0 mm 1 mps 743 mmHg 90%
    04:00 +5°C° 0 mm 1 mps 743 mmHg 90%
    05:00 +5°C° 0 mm 1 mps 743 mmHg 89%
    06:00 +6°C° 0 mm 1 mps 743 mmHg 88%
    07:00 +6°C° 0 mm 2 mps 743 mmHg 83%
    08:00 +8°C° 0 mm 2 mps 743 mmHg 78%
    09:00 +9°C° 0 mm 3 mps 743 mmHg 74%
    10:00 +10°C° 0.4 mm 3 mps 743 mmHg 71%
    11:00 +11°C° 0.4 mm 4 mps 743 mmHg 68%
    12:00 +12°C° 0.4 mm 4 mps 743 mmHg 65%
    13:00 +12°C° 0.8 mm 4 mps 743 mmHg 65%
    14:00 +12°C° 0.8 mm 4 mps 743 mmHg 66%
    15:00 +12°C° 0.8 mm 5 mps 742 mmHg 67%
    16:00 +10°C° 0.4 mm 4 mps 743 mmHg 73%
    17:00 +8°C° 0.4 mm 4 mps 743 mmHg 80%
    18:00 +7°C° 0.4 mm 4 mps 743 mmHg 86%
    19:00 +6°C° 0 mm 4 mps 743 mmHg 86%
    20:00 +5°C° 0 mm 4 mps 744 mmHg 87%
    21:00 +5°C° 0 mm 4 mps 744 mmHg 87%
    22:00 +4°C° 0 mm 3 mps 744 mmHg 88%
    23:00 +3°C° 0 mm 3 mps 745 mmHg 88%

    21 September, Saturday

    Time Temperature Precipitation Wind Pressure Humidity
    00:00 +3°C° 0 mm 3 mps 745 mmHg 89%
    01:00 +2°C° 0 mm 3 mps 745 mmHg 90%
    02:00 +2°C° 0 mm 3 mps 745 mmHg 91%
    03:00 +3°C° 0 mm 2 mps 745 mmHg 93%
    04:00 +2°C° 0 mm 2 mps 746 mmHg 91%
    05:00 +2°C° 0 mm 2 mps 746 mmHg 90%
    06:00 +2°C° 0 mm 2 mps 746 mmHg 89%
    07:00 +2°C° 0 mm 3 mps 746 mmHg 82%
    08:00 +4°C° 0 mm 3 mps 746 mmHg 75%
    09:00 +5°C° 0 mm 3 mps 747 mmHg 68%
    10:00 +6°C° 0 mm 4 mps 747 mmHg 61%
    11:00 +7°C° 0 mm 4 mps 747 mmHg 55%
    12:00 +8°C° 0 mm 5 mps 747 mmHg 48%
    13:00 +8°C° 0 mm 5 mps 746 mmHg 48%
    14:00 +8°C° 0 mm 5 mps 746 mmHg 48%
    15:00 +8°C° 0 mm 6 mps 746 mmHg 48%
    16:00 +7°C° 0 mm 5 mps 746 mmHg 52%
    17:00 +7°C° 0 mm 4 mps 746 mmHg 55%
    18:00 +7°C° 0 mm 3 mps 746 mmHg 59%
    19:00 +5°C° 0 mm 3 mps 747 mmHg 63%
    20:00 +4°C° 0 mm 3 mps 747 mmHg 67%
    21:00 +3°C° 0 mm 3 mps 747 mmHg 71%
    22:00 +3°C° 0 mm 3 mps 747 mmHg 72%
    23:00 +3°C° 0 mm 3 mps 747 mmHg 74%
    Show more